www.pogodaiklimat.ru

Погода и климат >> Архив погоды >> Россия >> Якутия >> Иэма


ПОГОДА в Иэме

  • Прогноз погоды в Иэме
  • Монитор погоды в Иэме

АРХИВ ПОГОДЫ в Иэме

Время (UTC), дата Ветер
(напр.,м/с)
 
Видим.   Явления Облачность Т
(С)
Тd
(С)
f
(%)
Тe
(С)
Тes
(С)
Комфортность P
(гПа)
Po
(гПа)
Тmin
(С)
Tmax
(С)
R
(мм)
R24
(мм)
S
(см)
00 12.02 штиль 0 50 км 8/0
[As op Ci fib]
-42.4 -45.6 71 -42 -42 опасность
обморожения
1026.5 929.6
03 12.02 штиль 0 50 км 4/0
[Ci fib]
-39.7 -42.9 71 -40 -39 опасность
обморожения
1025.3 929.5
06 12.02 штиль 0 50 км 8/0
[Ci fib]
-40.6 -43.9 70 -41 -40 опасность
обморожения
1025.8 929.6
09 12.02 штиль 0 50 км 3/0
[Ci fib]
-43.6 -46.9 70 -44 -44 опасность
обморожения
1027.5 930.1 -39.7
12 12.02 штиль 0 50 км ясно -47.3 -50.2 72 -47 -47 опасность
обморожения
1029.4 930.3
15 12.02 штиль 0 50 км ясно -49.8 -52.4 74 -50 -50 опасность
обморожения
1030.4 930.2
18 12.02 штиль 0 50 км ясно -50.6 -53.7 69 -51 -51 опасность
обморожения
1030.7 930.1
21 12.02 штиль 0 50 км ясно -50.9 -53.7 72 -51 -51 опасность
обморожения
1030.7 929.9 -51.5 28
00 13.02 штиль 0 50 км 3/0
[Ci fib]
-50.0 -53.7 65 -50 -50 опасность
обморожения
1030.2 929.9
03 13.02 штиль 0 50 км 3/0
[Ci fib]
-47.1 -50.2 70 -47 -46 опасность
обморожения
1028.7 929.6
06 13.02 штиль 0 50 км 3/0
[Ci fib]
-43.9 -46.9 72 -44 -44 опасность
обморожения
1026.4 928.9
09 13.02 штиль 0 50 км 3/0
[Ci fib]
-47.0 -50.2 69 -47 -47 опасность
обморожения
1028.2 929.4 -43.9
12 13.02 штиль 0 50 км 3/0
[Ci fib]
-48.2 -51.2 71 -48 -48 опасность
обморожения
1028.7 929.3
15 13.02 штиль 0 50 км ясно -49.5 -52.4 71 -50 -50 опасность
обморожения
1029.1 929.1
18 13.02 штиль 0 50 км ясно -50.2 -53.7 66 -50 -50 опасность
обморожения
1028.9 928.6
21 13.02 штиль 0 50 км ясно -50.6 -53.7 69 -51 -51 опасность
обморожения
1028.8 928.4 -51.0 28
00 14.02 штиль 0 50 км 3/0
[Ci fib]
-51.7 -55.2 66 -52 -51 опасность
обморожения
1029.8 928.7 -51.7
03 14.02 штиль 0 50 км 3/0
[Ci fib]
-48.0 -51.2 69 -48 -47 опасность
обморожения
1027.3 928.1
06 14.02 штиль 0 50 км 3/0
[Ci fib]
-43.9 -47.6 66 -44 -44 опасность
обморожения
1024.5 927.2
09 14.02 штиль 0 50 км 3/0
[Ci fib]
-47.4 -50.2 73 -47 -47 опасность
обморожения
1026.0 927.2 -43.9
12 14.02 штиль 0 50 км ясно -50.2 -53.7 66 -50 -50 опасность
обморожения
1026.7 926.6
15 14.02 штиль 0 50 км ясно -50.7 -53.7 70 -51 -51 опасность
обморожения
1026.1 925.8
18 14.02 штиль 0 50 км ясно -51.1 -53.7 74 -51 -51 опасность
обморожения
1024.6 924.4
21 14.02 штиль 0 50 км ясно -51.5 -55.2 64 -52 -52 опасность
обморожения
1023.1 922.7 -52.0 28
00 15.02 штиль 0 50 км 6/0
[Ci fib]
-49.4 -52.4 71 -49 -49 опасность
обморожения
1020.9 921.7
03 15.02 штиль 0 50 км 10/0
[Cs]
-43.3 -46.9 67 -43 -42 опасность
обморожения
1015.5 919.3
06 15.02 штиль 0 50 км 10/0
[Cs]
-38.0 -41.6 69 -38 -38 опасность
обморожения
1011.4 917.7
09 15.02 ЮВ 3 50 км 10/0
[Ac trans Cs]
-30.0 -33.7 70 -40 -40 опасность
обморожения
1007.6 917.1 -30.0
12 15.02 штиль 0 50 км 4/0
[Cs]
-39.1 -42.5 70 -39 -39 опасность
обморожения
1011.4 917.2
15 15.02 С 2 50 км 3/0
[Ci fib]
-40.2 -43.4 71 -49 -49 опасность
обморожения
1010.8 916.3
18 15.02 штиль 0 50 км ясно -42.3 -45.6 70 -42 -42 опасность
обморожения
1010.7 915.4
21 15.02 штиль 0 50 км ясно -45.0 -48.4 68 -45 -45 опасность
обморожения
1011.0 914.5 -46.2 28
00 16.02 штиль 0 50 км 3/0
[Ci fib]
-44.9 -48.4 68 -45 -45 опасность
обморожения
1009.6 913.4
03 16.02 штиль 0 50 км ясно -39.7 -42.9 71 -40 -38 опасность
обморожения
1006.5 912.5
06 16.02 штиль 0 50 км ясно -38.2 -41.6 70 -38 -38 опасность
обморожения
1006.2 912.8
09 16.02 штиль 0 50 км ясно -42.1 -45.6 68 -42 -42 опасность
обморожения
1008.8 913.7 -38.2
12 16.02 штиль 0 50 км ясно -45.2 -48.4 70 -45 -45 опасность
обморожения
1011.1 914.6
15 16.02 штиль 0 50 км ясно -46.9 -50.2 69 -47 -47 опасность
обморожения
1012.2 914.9
18 16.02 штиль 0 50 км ясно -47.1 -50.2 70 -47 -47 опасность
обморожения
1013.7 916.2
21 16.02 штиль 0 50 км ясно -48.3 -51.2 72 -48 -48 опасность
обморожения
1015.2 917.0 -49.0 28
00 17.02 штиль 0 50 км 3/0
[Ci fib]
-45.8 -48.4 75 -46 -45 опасность
обморожения
1015.5 918.4
03 17.02 штиль 0 50 км 3/0
[Ci fib]
-40.2 -44.1 66 -40 -39 опасность
обморожения
1013.8 919.0
06 17.02 штиль 0 50 км 4/0
[Ci fib]
-39.3 -42.9 68 -39 -39 опасность
обморожения
1014.3 919.7
09 17.02 штиль 0 50 км 8/0
[Ci fib]
-41.6 -45.0 69 -42 -42 опасность
обморожения
1016.7 921.1 -39.3
12 17.02 штиль 0 50 км 6/0
[Ci fib]
-42.0 -45.6 68 -42 -42 опасность
обморожения
1017.7 921.9
15 17.02 штиль 0 50 км 9/0
[Ci fib]
-42.4 -45.6 71 -42 -42 опасность
обморожения
1018.4 922.3
18 17.02 штиль 0 50 км 8/0
[Ci fib]
-43.1 -46.2 71 -43 -43 опасность
обморожения
1019.0 922.5
21 17.02 штиль 0 50 км 3/0
[Ci fib]
-45.3 -48.4 71 -45 -45 опасность
обморожения
1020.9 923.4 -46.0 28
00 18.02 штиль 0 50 км 4/0
[Ci fib]
-44.6 -47.6 72 -45 -44 опасность
обморожения
1021.5 924.3
03 18.02 штиль 0 50 км 3/0
[Ci fib]
-39.7 -42.9 71 -40 -38 опасность
обморожения
1020.0 924.7
06 18.02 штиль 0 50 км ясно -38.8 -42.5 68 -39 -38 опасность
обморожения
1020.2 925.4
09 18.02 штиль 0 50 км ясно -41.2 -44.4 71 -41 -41 опасность
обморожения
1022.8 926.7 -38.8
12 18.02 штиль 0 50 км ясно -45.9 -49.2 69 -46 -46 опасность
обморожения
1026.3 928.0
15 18.02 штиль 0 50 км 3/0
[Ci fib]
-45.2 -48.4 70 -45 -45 опасность
обморожения
1027.0 929.0

 

Местоположение метеостанции Иэма (Якутия, Россия): широта 65.30 долгота 135.80 высота над уровнем моря 675 м.

В архиве по умолчанию представлена погода в Иэме за последнюю неделю. Архивные данные за месяц целиком и за предыдущие месяцы, начиная с января 2011 года, Вы можете получить, выбрав интересующий диапазон дат из раскрывающегося списка и нажав кнопку "Ввод!".


*Определитесь, кто Вы:
робот инопланетянин человек

Внимание! Время в таблицах - всемирное. Для получения местного времени необходимо прибавить поправку, которая равна 9 ч.

Смотрите также архив погоды в соседних городах и на ближайших метеорологических станциях:

Погода в Томпо (Якутия, Россия) (150 км)
Погода в Усть-Чарках (Якутия, Россия) (171 км)
Погода в Екюччю (Якутия, Россия) (250 км)
Погода в Батагае (Якутия, Россия) (267 км)
Погода в Себян-Кюеле (Якутия, Россия) (269 км)
Погода в Верхоянске (Якутия, Россия) (274 км)
Погода в Крест-Хальджае (Якутия, Россия) (284 км)
Погода в Теплом Ключе (Якутия, Россия) (284 км)
Погода в Верхоянском Перевозе (Якутия, Россия) (286 км)
Погода в Восточной (Якутия, Россия) (294 км)

Пояснения к столбцам:

Ветер - указаны скорость ветра в м/с - средняя за 10 мин, порывы в срок и между сроками (в фигурных скобках) и направление, откуда дует ветер: С - северный, СВ - северо-восточный, В - восточный, ЮВ - юго-восточный, Ю - южный, ЮЗ - юго-западный, З - западный, СЗ - северо-западный.
Видимость - горизонтальная дальность видимости в метрах или километрах. При видимости от 1 до 10 км при отсутствии осадков обычно наблюдается дымка, при ухудшении видимости до 1 км и менее - туман. В сухую погоду видимость может ухудшаться дымом, пылью или мглою.
Явления - указаны атмосферные явления, наблюдавшиеся в срок или в последний час перед сроком; фигурными скобками обозначены явления, наблюдавшиеся между сроками (за 1-3 часа до срока); квадратными скобками обозначены град или гололедные отложения с указанием их диаметра в мм.
Облачность - указаны через наклонную черту общая и нижняя облачность в баллах и высота нижней границы облаков в метрах; квадратными скобками обозначены формы облаков: Ci - перистые, Cs - перисто-слоистые, Cc - перисто-кучевые, Ac - высококучевые, As - высокослоистые, Sc - слоисто-кучевые, Ns - слоисто-дождевые, Cu - кучевые, Cb - кучево-дождевые. Подробнее классификацию облаков см. в Атласе облаков (PDF).
T - Температура воздуха - температура, измеренная на высоте 2 м над землей.
Td - Температура точки росы - температура, при понижении до которой содержащийся в воздухе водяной пар достигнет насыщения.
f - Относительная влажность воздуха - влажноcть воздуха, измеренная на высоте 2 м над землей.
Te - Эффективная температура - температура, которую ощущает одетый по сезону человек в тени. Характеристика душности погоды. При расчете учитывается влияние влажности воздуха и скорости ветра на теплоощущения человека.
Tes - Эффективная температура на солнце - температура, которую ощущает человек, с поправкой на солнечный нагрев. Характеристика знойности погоды. Зависит от высоты солнца над горизонтом, облачности и скорости ветра. Ночью, в пасмурную погоду, а также при ветре 12 м/с и более поправка равна нулю.
P - Атмосферное давление - приведенное к уровню моря атмосферное давление.
Po - Атмосферное давление - измеренное на уровне метеостанции атмосферное давление.
Tmin - Минимальная температура - минимум температуры воздуха на высоте 2 м над землей.
Tmax - Максимальная температура - максимум температуры воздуха на высоте 2 м над землей.
R - Количество осадков - Количество выпавших осадков за период времени, мм. При наведении курсора мыши на число - период времени, за который выпало указанное количество осадков.
R24 - Количество осадков - Количество выпавших осадков за 24 часа, мм.
S - Снежный покров - Высота снежного покрова, см. При наведении курсора мыши на число - состояние снежного покрова и степень покрытия местности в баллах.